Temperature
8 9 9 8 8 9 8 8 8 9 10 10 10 10 10 10 10 9 9 9 8 8 8 8 8 7 7 7 7 7 7 7 7 6 6 6 6 6 6 6 6 5 5 5
7 8 8 7 8 8 8 9 9 9 9 10 11 11 10 10 9 9 9 8 8 8 7 7 7 7 7 7 7 7 7 6 6 6 6 6 6 5 5 5 5 5 5 5
6 8 8 7 9 8 8 8 9 8 9 10 9 9 9 9 9 9 8 8 7 7 7 7 7 7 7 7 6 6 6 6 6 6 5 5 5 5 5 5 5 4 4 4
6 7 6 9 10 10 9 9 9 9 9 9 9 9 9 9 8 8 8 7 7 7 7 7 6 6 6 6 6 6 5 5 5 5 5 5 5 4 4 4 4 4 4 4
5 6 7 9 9 9 8 8 9 9 9 9 9 8 8 8 8 8 7 7 7 7 6 6 6 6 6 5 5 5 5 5 5 5 4 4 4 4 4 4 4 4 3 3
5 6 7 9 8 8 8 7 8 9 8 8 7 5 6 8 7 7 7 7 6 6 6 6 6 5 5 5 5 5 4 4 4 4 4 4 4 4 4 3 3 3 3 3
4 5 7 8 7 7 7 8 8 8 8 8 7 6 7 7 7 6 6 6 6 6 6 5 5 5 5 5 4 4 4 4 4 4 3 3 3 3 3 3 3 3 3 3
5 5 6 7 6 6 7 8 8 7 7 7 7 7 6 6 6 6 6 6 5 5 5 5 5 4 4 4 4 4 4 4 3 3 3 3 3 3 3 2 2 2 2 2
6 6 8 8 7 8 8 7 7 7 7 6 6 6 6 5 5 5 5 5 5 4 4 4 4 4 4 4 3 3 3 3 3 3 3 3 2 2 2 2 2 2 2 1
5 6 8 8 8 7 7 7 6 6 6 6 5 5 5 5 5 5 4 4 4 4 4 4 4 4 3 3 3 3 3 3 3 2 2 2 2 2 2 2 1 1 1 1
4 6 7 7 7 7 7 6 6 6 5 5 5 5 4 4 4 4 4 4 4 3 3 3 3 3 3 3 2 2 2 2 2 2 2 2 2 1 1 1 1 1 1 0
5 6 6 6 7 6 6 6 5 5 5 4 4 4 4 4 4 3 3 3 3 3 3 3 2 2 2 2 2 2 2 2 1 1 1 1 1 1 1 1 0 0 -0 -0
6 6 6 6 6 5 5 5 5 4 4 4 4 3 3 3 3 3 3 3 2 2 2 2 2 2 2 2 1 1 1 1 1 1 1 1 0 0 0 0 0 -0 -0 -1
5 5 5 5 5 4 4 4 4 4 3 3 3 3 3 2 2 2 2 2 2 2 2 2 2 1 1 1 1 1 1 0 0 0 0 0 -0 -0 -0 -1 -1 -1 -1 -1
4 4 4 4 4 3 3 3 3 3 2 2 2 2 2 2 2 2 2 1 1 1 1 1 1 1 1 0 0 -0 0 0 -0 -0 -0 -1 -1 -1 -1 -1 -1 -1 -1 -1
3 3 3 3 3 2 2 2 2 1 1 1 1 1 1 1 1 1 1 1 1 1 1 0 0 0 0 -0 -0 -0 -0 -0 -1 -1 -1 -1 -1 -1 -2 -2 -2 -2 -2 -2
2 2 2 2 1 1 1 1 1 1 1 0 0 0 0 0 0 0 0 0 0 0 0 -0 -0 -0 -0 -0 -1 -1 -1 -1 -1 -1 -1 -2 -2 -2 -2 -2 -3 -3 -3 -3
1 1 1 1 1 1 1 1 0 0 0 0 -0 -0 -0 -0 -0 -0 -0 -0 -0 -0 -0 -0 -1 -1 -1 -1 -1 -1 -1 -1 -2 -2 -2 -2 -2 -2 -3 -3 -3 -3 -3 -3
1 1 1 1 1 0 0 0 -0 -0 -0 -0 -1 -1 -1 -1 -1 -1 -1 -1 -1 -1 -0 -1 -1 -1 -1 -1 -2 -2 -2 -2 -2 -2 -2 -3 -3 -3 -3 -3 -3 -4 -4 -4
-0 -0 -0 -0 -0 -0 -0 -0 -0 -1 -1 -1 -1 -1 -1 -1 -1 -1 -1 -1 -1 -1 -1 -1 -1 -2 -2 -2 -2 -2 -2 -2 -3 -3 -3 -3 -3 -3 -3 -4 -4 -4 -4 -4
-1 -1 -1 -1 -1 -1 -1 -1 -1 -1 -1 -1 -1 -1 -1 -1 -1 -2 -2 -1 -1 -1 -2 -2 -2 -2 -2 -2 -3 -3 -3 -3 -3 -3 -3 -3 -4 -4 -4 -4 -4 -4 -4 -4
-1 -1 -1 -2 -1 -1 -1 -1 -1 -1 -1 -1 -2 -2 -2 -2 -2 -2 -2 -2 -2 -2 -2 -2 -2 -3 -3 -3 -3 -3 -3 -3 -3 -3 -4 -4 -4 -4 -4 -4 -4 -4 -4 -4
-2 -2 -2 -2 -2 -2 -2 -2 -2 -2 -2 -2 -2 -2 -2 -2 -2 -2 -2 -2 -2 -2 -3 -3 -3 -3 -3 -3 -3 -3 -3 -3 -3 -4 -4 -4 -4 -4 -4 -4 -4 -4 -4 -5
-2 -2 -2 -2 -2 -2 -2 -2 -2 -2 -2 -2 -2 -2 -2 -2 -2 -2 -3 -3 -3 -3 -3 -3 -3 -4 -4 -4 -4 -4 -4 -4 -4 -4 -4 -4 -4 -4 -4 -4 -5 -5 -5 -5
-2 -2 -2 -2 -2 -2 -2 -2 -2 -3 -3 -3 -3 -3 -3 -3 -3 -3 -3 -3 -3 -4 -4 -4 -4 -4 -4 -4 -4 -4 -4 -4 -4 -4 -4 -4 -4 -4 -4 -5 -5 -5 -5 -5
-3 -3 -3 -3 -3 -3 -3 -3 -3 -3 -3 -3 -3 -3 -4 -4 -4 -4 -4 -4 -4 -4 -4 -4 -4 -4 -4 -4 -4 -4 -4 -4 -4 -4 -4 -4 -5 -5 -5 -5 -5 -5 -5 -5
-3 -3 -3 -3 -3 -3 -4 -4 -4 -4 -4 -4 -4 -4 -4 -4 -4 -4 -4 -4 -4 -4 -4 -4 -5 -5 -5 -5 -5 -5 -5 -5 -5 -5 -5 -5 -5 -5 -5 -5 -5 -5 -5 -5
Wind_Speed
9 8 7 9 9 8 9 9 7 7 6 6 3 2 2 3 3 3 3 4 4 3 3 3 3 3 3 3 3 3 3 3 4 3 3 3 3 3 3 3 4 4 4 4
7 7 8 11 12 12 11 11 12 11 11 7 2 2 2 2 2 3 3 3 3 3 3 3 3 3 3 3 3 3 3 4 3 3 3 3 3 3 3 4 4 4 4 4
5 4 7 9 8 10 7 7 7 9 7 2 1 1 1 2 2 3 3 2 2 3 3 3 3 3 3 3 3 3 4 4 4 3 3 3 3 3 4 4 4 4 4 4
5 5 7 6 1 1 6 7 8 6 4 2 2 2 1 2 3 3 2 2 2 2 2 2 2 2 2 2 3 4 4 4 4 3 4 3 3 4 4 3 4 4 4 5
3 5 9 5 2 2 3 5 5 5 4 2 1 2 2 1 2 2 1 1 1 1 1 1 2 3 2 3 3 4 4 4 4 4 4 4 4 5 4 3 4 4 4 4
4 5 6 2 2 2 1 4 1 2 2 1 1 1 2 0 1 1 0 1 0 0 0 1 2 2 3 3 4 5 4 4 3 3 4 5 5 4 3 3 4 4 4 5
8 7 8 2 4 4 2 3 1 1 0 1 2 3 2 1 1 0 1 1 1 1 2 3 2 2 4 4 5 4 3 3 3 4 4 5 4 3 3 3 4 4 5 5
6 8 8 4 5 4 3 1 1 1 1 1 2 3 3 2 2 1 2 2 2 2 3 3 3 3 5 6 5 3 3 3 4 4 4 3 4 4 4 4 4 5 5 5
8 8 2 5 4 2 1 2 2 2 2 2 3 4 4 4 3 3 3 3 3 3 4 4 4 5 6 6 4 3 4 5 5 4 4 4 4 4 4 4 4 4 4 5
6 7 5 5 4 4 3 4 4 4 3 3 5 5 5 4 4 4 4 3 3 3 4 5 5 5 6 4 4 4 5 5 4 4 4 4 4 4 4 4 4 4 4 4
9 8 7 7 6 6 5 5 5 5 5 5 5 6 5 4 4 4 4 4 3 4 5 6 5 4 4 4 4 5 5 5 4 4 4 4 4 4 5 5 5 5 5 4
10 7 6 7 4 4 6 6 6 6 6 5 5 6 6 5 5 4 4 4 4 5 5 5 5 5 5 4 5 5 5 5 4 4 4 4 4 4 6 6 7 8 8 7
11 9 8 8 7 5 6 6 6 6 6 6 6 6 5 5 4 4 4 4 5 6 6 5 5 5 5 4 5 6 6 5 4 4 4 4 4 4 5 5 7 9 10 10
7 7 9 8 7 6 5 5 4 4 5 5 5 5 5 5 4 5 5 5 5 5 5 5 6 6 5 4 5 6 6 6 6 5 5 5 5 5 5 5 5 5 7 10
9 8 8 6 5 4 3 3 3 4 5 5 4 5 5 5 6 6 5 4 4 5 5 6 6 7 5 5 5 6 6 5 5 5 5 5 5 5 5 6 6 6 5 6
6 5 5 5 5 5 4 4 5 6 6 5 5 5 5 5 5 5 5 4 5 6 6 6 7 6 5 5 5 5 6 8 7 5 5 5 5 5 6 6 6 6 6 5
4 5 4 5 6 5 5 5 5 5 5 5 5 5 4 4 4 5 5 5 5 6 6 6 6 5 5 5 6 5 5 6 7 5 5 6 6 6 6 6 6 6 6 7
5 6 5 6 6 6 6 5 4 5 5 5 4 4 4 5 6 6 5 4 4 5 6 6 6 5 5 5 5 4 4 5 5 5 5 5 6 6 6 6 7 7 6 7
4 4 4 4 4 4 4 4 4 4 4 4 4 5 5 5 5 5 4 4 5 6 6 5 6 5 5 5 5 4 4 5 5 5 5 8 7 6 6 6 7 7 6 6
3 2 2 2 2 2 3 3 3 3 3 3 3 4 4 5 4 4 4 5 6 5 5 5 4 4 4 5 5 4 4 5 5 5 5 5 6 6 6 6 7 7 7 6
3 2 2 2 2 3 3 3 3 4 4 3 3 4 5 5 5 4 4 6 6 4 4 5 3 3 3 4 4 3 4 5 5 6 6 6 6 7 7 7 7 7 7 6
3 2 3 3 3 3 3 3 3 4 4 4 4 5 5 6 5 5 5 6 6 6 4 3 3 5 5 5 3 4 4 5 6 6 6 6 6 7 7 7 7 7 6 6
3 3 3 3 3 4 4 4 4 4 5 6 6 6 6 6 5 5 6 5 4 6 4 4 6 8 9 5 4 5 5 6 6 6 6 6 6 7 7 7 7 7 6 6
4 4 4 4 3 3 5 6 5 5 5 6 6 6 6 5 5 5 5 6 7 8 5 7 10 11 10 5 5 5 6 6 6 6 6 6 6 6 7 7 7 6 6 7
4 4 4 4 4 5 5 5 5 5 5 5 6 6 5 5 5 5 5 5 8 8 6 8 11 11 7 5 5 6 6 7 7 6 6 6 6 6 6 6 6 6 6 6
5 5 5 5 5 5 4 4 4 5 5 5 5 5 4 4 5 5 5 6 7 9 7 5 6 7 5 5 6 6 6 7 7 7 6 6 7 7 6 6 7 6 6 6
5 5 5 5 5 5 4 4 5 6 5 5 6 5 5 4 4 5 6 5 5 5 5 5 5 5 5 5 6 6 6 5 5 6 6 6 6 6 6 6 6 5 5 5
Wind_Direction
276 281 277 269 261 244 229 227 237 259 268 260 243 202 203 182 182 182 182 182 186 188 186 177 175 175 172 177 176 177 189 207 219 228 229 229 231 232 233 233 234 232 231 232
284 259 261 267 256 245 244 241 247 263 274 268 241 197 206 194 191 199 206 195 185 186 192 195 189 181 178 184 180 178 200 214 218 224 228 228 230 232 233 237 238 236 236 234
279 284 296 271 247 222 222 220 220 239 252 268 263 243 215 203 211 217 219 201 197 197 199 201 193 186 193 192 183 195 213 218 213 215 221 228 231 232 236 237 237 240 240 235
284 312 258 248 63 213 224 238 230 245 273 279 277 296 261 230 229 234 233 220 197 192 205 205 186 184 188 188 196 210 220 220 211 210 222 226 229 236 240 240 240 241 243 240
254 269 273 260 221 189 216 268 233 236 258 286 354 351 285 222 165 202 214 219 218 196 206 210 202 195 188 203 210 219 225 224 217 213 225 229 231 237 239 238 245 246 244 240
234 248 257 257 123 84 74 272 254 187 239 241 100 254 256 45 147 222 162 134 174 182 238 231 227 189 197 219 221 229 227 222 218 220 229 233 235 239 241 238 241 244 248 241
232 245 263 223 139 119 173 249 62 80 224 205 207 229 273 351 330 223 244 222 216 217 227 232 219 194 222 232 232 230 221 222 228 229 230 234 237 237 241 242 245 248 250 250
206 225 250 155 142 187 235 55 46 353 307 276 274 302 315 307 287 271 265 239 222 221 237 236 213 207 229 235 230 216 216 228 234 234 233 230 229 239 240 236 243 249 254 257
209 225 261 174 207 225 353 306 299 285 282 266 267 268 267 264 256 252 253 243 224 225 242 240 219 211 230 237 217 209 221 232 236 234 231 223 219 228 236 234 237 245 246 252
263 259 252 240 248 247 247 255 270 263 264 261 259 261 259 255 254 254 252 246 233 234 245 250 236 225 232 232 208 211 228 236 235 231 235 232 225 219 225 232 238 244 248 254
259 270 283 263 252 256 266 269 272 263 253 249 253 263 259 256 256 255 252 247 237 237 244 253 250 240 237 226 210 222 230 234 237 233 232 234 235 231 233 236 234 241 244 244
252 253 253 268 276 273 263 257 254 256 258 253 246 256 257 253 250 249 249 250 249 246 250 256 253 248 241 226 216 224 233 232 231 231 231 231 238 262 258 248 258 256 252 252
257 270 270 275 280 271 257 253 250 250 252 259 255 253 252 250 245 246 248 249 249 249 250 255 256 254 246 232 222 225 232 233 232 231 231 234 234 241 267 281 268 263 261 261
265 277 275 272 272 266 259 255 251 254 257 256 258 256 252 251 250 248 248 247 250 253 256 257 257 257 249 232 224 230 233 235 232 232 232 234 236 238 241 255 273 276 265 263
256 254 258 270 275 273 261 247 248 256 256 257 255 251 248 247 249 252 255 254 254 255 257 257 257 258 247 230 226 232 234 235 232 234 234 235 237 240 244 248 255 265 272 269
264 265 268 266 270 269 255 247 247 254 256 258 257 254 252 250 253 258 255 242 245 252 255 255 257 258 243 229 228 234 238 241 237 235 237 241 241 242 246 248 253 256 258 260
255 254 252 261 263 261 251 245 245 250 256 258 257 256 258 262 265 265 261 250 247 251 254 255 258 258 243 230 229 234 235 240 238 238 236 237 240 242 245 248 251 256 258 257
255 246 240 242 252 259 258 252 248 250 252 254 254 253 254 255 260 266 268 269 270 270 263 254 255 257 246 236 231 231 232 236 235 236 240 241 246 244 246 250 252 258 264 265
281 264 256 251 250 247 251 254 257 259 258 255 250 251 253 257 262 266 267 265 265 271 272 260 258 252 248 240 233 230 234 240 245 246 244 253 258 250 248 251 255 257 259 260
307 301 287 283 279 261 261 262 262 263 260 254 251 257 267 269 265 263 261 261 258 258 262 268 264 256 251 245 239 232 233 239 245 250 248 248 250 252 251 251 253 254 255 256
307 305 300 294 296 287 271 264 260 262 264 252 247 256 265 272 270 263 263 274 278 272 269 270 266 261 255 252 249 238 240 247 251 251 251 251 253 255 254 253 254 256 256 256
299 294 290 289 286 289 284 271 259 261 267 265 260 259 265 273 273 268 256 256 268 279 281 272 266 262 260 263 248 245 247 252 254 253 253 251 252 255 255 254 255 257 255 254
299 293 293 290 283 284 291 285 270 261 260 261 261 260 259 261 261 263 276 271 266 278 278 267 271 273 274 269 253 251 253 254 256 256 255 253 252 253 256 256 257 256 255 255
288 291 289 290 290 287 286 283 277 269 264 266 263 258 258 268 274 258 253 270 277 280 273 273 278 279 280 265 254 253 254 255 255 256 256 255 254 254 254 256 258 258 255 254
283 282 281 282 281 276 274 278 283 279 274 272 269 264 255 244 252 267 268 270 276 282 279 279 282 282 276 261 256 255 255 255 257 257 253 256 257 257 258 258 259 260 258 256
273 271 268 262 262 267 272 273 275 277 278 282 283 276 269 260 254 260 265 266 268 277 277 273 274 276 267 262 260 259 259 266 270 265 260 261 261 260 260 260 261 261 260 258
272 271 271 274 271 262 261 262 268 274 273 274 281 281 275 272 270 269 269 269 269 269 269 269 268 266 266 266 266 265 264 262 260 261 262 261 261 260 260 261 262 261 260 258
Height
1501 1497 1497 1496 1495 1494 1495 1495 1496 1487 1483 1479 1478 1479 1479 1480 1481 1482 1483 1484 1485 1485 1486 1487 1487 1488 1488 1489 1489 1489 1489 1490 1490 1490 1490 1490 1489 1489 1489 1489 1489 1488 1488 1487
1503 1495 1495 1494 1489 1488 1488 1486 1484 1482 1480 1474 1475 1476 1477 1478 1479 1480 1481 1482 1482 1483 1483 1484 1484 1484 1485 1485 1486 1486 1486 1486 1486 1486 1486 1485 1485 1485 1485 1484 1484 1484 1483 1483
1504 1493 1493 1491 1479 1480 1480 1478 1479 1480 1476 1473 1474 1475 1475 1476 1477 1478 1479 1479 1480 1480 1480 1481 1481 1481 1481 1481 1482 1482 1482 1482 1482 1482 1481 1481 1481 1481 1480 1480 1480 1479 1479 1478
1505 1500 1502 1479 1471 1471 1473 1472 1473 1472 1472 1472 1472 1473 1474 1474 1475 1475 1476 1477 1477 1477 1477 1478 1478 1477 1478 1478 1478 1478 1477 1477 1477 1477 1477 1477 1477 1476 1476 1476 1475 1475 1474 1474
1505 1501 1487 1474 1471 1471 1472 1472 1469 1469 1469 1470 1470 1471 1472 1472 1472 1473 1473 1474 1474 1474 1474 1474 1474 1474 1474 1474 1474 1474 1473 1473 1473 1473 1473 1473 1472 1472 1472 1471 1471 1470 1470 1469
1502 1499 1489 1472 1471 1469 1472 1474 1468 1467 1468 1469 1470 1473 1472 1470 1470 1470 1471 1471 1471 1471 1470 1470 1470 1470 1470 1470 1470 1469 1469 1469 1469 1469 1469 1468 1468 1467 1467 1467 1466 1466 1465 1465
1500 1495 1481 1471 1470 1471 1477 1472 1467 1466 1467 1468 1469 1470 1469 1468 1468 1468 1468 1468 1468 1467 1467 1466 1466 1466 1466 1465 1465 1465 1465 1465 1465 1464 1464 1464 1463 1463 1463 1462 1461 1461 1460 1460
1493 1492 1482 1469 1470 1471 1469 1467 1466 1466 1466 1466 1466 1466 1466 1465 1465 1465 1465 1464 1464 1464 1463 1463 1462 1462 1461 1461 1461 1461 1461 1460 1460 1460 1459 1459 1459 1458 1458 1457 1457 1456 1455 1455
1478 1474 1467 1465 1465 1465 1465 1465 1465 1464 1464 1464 1464 1463 1463 1463 1462 1462 1461 1461 1460 1460 1459 1458 1458 1457 1457 1456 1456 1456 1456 1456 1455 1455 1455 1454 1454 1454 1453 1453 1452 1451 1450 1449
1470 1464 1463 1463 1462 1462 1462 1462 1462 1462 1461 1461 1460 1459 1459 1459 1458 1458 1457 1457 1456 1455 1454 1453 1453 1453 1452 1452 1452 1451 1451 1451 1450 1450 1450 1450 1449 1449 1448 1448 1447 1446 1445 1444
1466 1461 1460 1458 1459 1458 1458 1458 1458 1457 1457 1457 1456 1455 1455 1454 1454 1453 1453 1452 1452 1451 1450 1449 1448 1448 1448 1447 1447 1446 1446 1446 1445 1445 1445 1444 1444 1444 1443 1442 1442 1441 1440 1439
1460 1456 1457 1455 1455 1454 1454 1453 1453 1452 1452 1452 1451 1450 1450 1449 1449 1448 1448 1447 1446 1446 1445 1444 1444 1443 1443 1442 1442 1441 1441 1440 1440 1440 1439 1439 1439 1438 1437 1437 1436 1436 1435 1434
1452 1451 1451 1449 1449 1449 1449 1448 1448 1447 1447 1446 1446 1446 1445 1444 1444 1443 1442 1442 1441 1440 1440 1439 1438 1437 1437 1437 1436 1436 1435 1435 1435 1434 1434 1434 1433 1432 1431 1431 1431 1430 1429 1428
1447 1446 1445 1444 1443 1443 1443 1442 1442 1441 1441 1441 1440 1440 1439 1438 1438 1437 1437 1436 1436 1435 1434 1433 1432 1432 1431 1431 1431 1430 1430 1429 1429 1429 1429 1428 1428 1427 1426 1425 1424 1423 1423 1422
1440 1440 1439 1438 1438 1437 1437 1436 1436 1435 1435 1435 1435 1434 1434 1433 1432 1432 1431 1431 1430 1430 1429 1428 1427 1426 1426 1425 1425 1424 1424 1424 1424 1423 1423 1423 1422 1421 1420 1419 1418 1417 1416 1416
1433 1433 1433 1433 1432 1431 1431 1431 1430 1430 1430 1429 1429 1429 1428 1428 1427 1426 1426 1425 1425 1424 1423 1422 1422 1421 1421 1420 1419 1419 1418 1418 1418 1417 1417 1416 1416 1415 1414 1413 1412 1411 1410 1409
1428 1427 1427 1427 1427 1426 1426 1426 1426 1425 1425 1425 1424 1424 1423 1422 1421 1421 1420 1420 1419 1418 1418 1417 1416 1416 1415 1414 1413 1413 1413 1412 1412 1411 1411 1410 1410 1409 1408 1407 1406 1405 1404 1404
1423 1423 1423 1423 1422 1422 1421 1421 1421 1421 1421 1420 1420 1419 1418 1418 1417 1416 1415 1414 1414 1413 1412 1412 1411 1410 1409 1409 1408 1407 1407 1406 1406 1405 1405 1404 1403 1403 1402 1401 1400 1399 1398 1397
1419 1419 1418 1418 1418 1418 1417 1417 1417 1417 1416 1416 1415 1415 1414 1413 1413 1412 1411 1410 1409 1408 1407 1407 1406 1405 1404 1403 1402 1402 1401 1400 1400 1399 1399 1398 1397 1396 1396 1395 1394 1393 1392 1391
1416 1415 1414 1414 1414 1414 1414 1413 1413 1413 1412 1412 1411 1410 1410 1409 1409 1408 1407 1406 1405 1404 1403 1402 1401 1400 1399 1398 1397 1396 1396 1395 1394 1393 1393 1392 1391 1390 1390 1389 1388 1387 1386 1385
1414 1413 1412 1411 1411 1410 1410 1410 1410 1409 1409 1408 1408 1407 1406 1405 1405 1404 1403 1401 1401 1400 1399 1398 1397 1395 1394 1393 1392 1392 1391 1390 1389 1388 1387 1386 1385 1385 1384 1383 1382 1381 1381 1380
1412 1411 1410 1409 1408 1407 1407 1407 1407 1406 1405 1405 1404 1404 1402 1401 1400 1399 1398 1398 1396 1396 1394 1393 1392 1391 1390 1389 1387 1387 1386 1385 1383 1382 1382 1381 1380 1379 1378 1377 1377 1376 1375 1374
1411 1409 1408 1407 1406 1405 1404 1404 1403 1403 1402 1401 1400 1399 1398 1397 1396 1395 1393 1393 1392 1391 1390 1388 1387 1386 1385 1384 1382 1381 1380 1379 1378 1377 1376 1375 1374 1374 1373 1372 1371 1370 1369 1369
1409 1407 1406 1405 1404 1402 1401 1400 1400 1399 1398 1397 1396 1395 1394 1392 1391 1391 1390 1388 1387 1386 1385 1383 1382 1381 1380 1378 1377 1376 1375 1374 1373 1372 1371 1370 1369 1368 1367 1367 1366 1365 1364 1363
1406 1404 1403 1402 1401 1399 1398 1397 1396 1394 1393 1392 1391 1390 1389 1387 1386 1385 1384 1383 1382 1381 1379 1378 1377 1376 1374 1373 1372 1371 1370 1369 1368 1366 1365 1364 1364 1363 1362 1361 1360 1359 1358 1357
1402 1401 1400 1399 1398 1396 1395 1393 1391 1390 1388 1386 1385 1384 1383 1382 1381 1380 1379 1377 1376 1375 1374 1372 1371 1370 1369 1368 1366 1365 1364 1363 1362 1361 1360 1359 1358 1357 1356 1355 1355 1354 1353 1352
1398 1397 1396 1394 1393 1392 1391 1389 1387 1385 1383 1382 1380 1379 1378 1377 1376 1374 1373 1372 1371 1369 1368 1367 1365 1364 1363 1362 1361 1359 1358 1358 1357 1356 1355 1354 1353 1352 1351 1350 1349 1348 1347 1347